Tracking 20942 objects as of 15-Jul-2020
HD Live streaming from Space Station
objects crossing your sky now

NANOSAT(1)

Track NANOSAT(1) now!
10-day predictions
NANOSAT(1) is classified as:


NORAD ID: 28493
Int'l Code: 2004-049B
Perigee: 653.2 km
Apogee: 660.4 km
Inclination: 98.1 °
Period: 97.7 minutes
Semi major axis: 7027 km
RCS: 0.2736 m2 (medium)
Launch date: December 18, 2004
Source: Spain (SPN)
Launch site: FRENCH GUIANA (FRGUI)

Will maintain contact with Spanish zone in Antarctica; extremely small magnetic and solar sensors.
aabbcc
Your satellite tracking list
Your tracking list is empty




NASA's NSSDC Master Catalog

Two Line Element Set (TLE):
1 28493U 04049B   20196.50628574  .00000026  00000-0  11923-4 0  9996
2 28493  98.1194 286.2488 0005095  34.6010 325.5529 14.73584968836341
Source of the keplerian elements: AFSPC